Location: *
(41.7492°S, 135.4150°W)
Time: 22:10:00
(UTC+00:00)

Cosmos 1844 Rocket - Pass Details

Date: 20 September 2021
Orbit: 826 x 843 km, 71.0° (Epoch: 25 October)

Event Time Altitude Azimuth Distance (km) Brightness Sun altitude
Exits shadow 13:59:42 - 321° (NW) 2,950 5.1 -10.8°
Reaches altitude 10° 14:01:05 10° 318° (NW) 2,436 4.6 -10.6°
Maximum altitude 14:06:32 52° 242° (WSW) 1,031 2.9 -9.6°
Drops below altitude 10° 14:12:04 10° 165° (SSE) 2,471 5.4 -8.6°
Sets 14:14:36 0° 159° (SSE) 3,414 6.2 -8.1°
